[[{"header":{"parameterUnit":"m.s-1","parameterCategory":1,"la1":30.2991,"la2":30.254,"lo1":-89.0895,"lo2":-89.0444,"dy":0.0017,"dx":0.0017,"nx":28,"ny":28,"refTime":"2024-02-27T03:00:00:Z","depth":0,"parameterNumber":2,"parameterNumberName":"U-component_of_WINDS"},"data":[0,0,0,0,0,0,0,0,0,0,0,0,0,0,0,0,0,0,0,0,0,0,0,0,0,0,0,0,0,0,0,0,0,0,0,0,0,0,0,0,0,0,0,0,0,0,0,0,0,0,0,0,0,0,0,0,0,0,1.5736,1.5737,0,1.575,1.575,1.575,1.5717,1.5716,1.5715,1.5714,1.5729,1.573,1.5732,0,0,0,0,0,0,0,0,0,0,0,0,0,1.5684,1.5685,1.5736,1.5737,1.5737,1.575,1.575,1.575,1.5717,1.5716,1.5715,1.5714,1.5729,1.573,1.5732,0,0,0,0,0,0,0,0,0,0,0,0,0,1.5703,1.5686,1.5736,1.5722,1.5721,1.575,1.575,1.575,1.5718,1.5716,1.5714,1.5713,1.5728,1.573,1.5732,1.5776,0,0,1.5738,1.5739,0,0,0,0,0,0,0,0,1.5702,1.5705,1.5724,1.5723,1.5722,1.573,1.5737,1.5759,1.5718,1.5719,1.5714,1.5712,1.5731,1.5733,1.5738,1.5777,1.5777,1.5739,1.574,1.5741,1.5741,0,0,0,0,0,0,0,1.5701,1.5704,1.5742,1.5724,1.5723,1.5715,1.5716,1.5741,1.5733,1.5719,1.5716,1.5718,1.573,1.5737,1.5739,1.5778,1.5738,1.574,1.5742,1.5742,1.5854,1.5856,0,0,0,0,0,0,1.5701,1.5703,1.5741,1.5742,1.5708,1.5718,1.5719,1.5729,1.5733,1.5732,1.572,1.5717,1.5734,1.5736,1.5739,1.5792,1.5741,1.5743,1.5744,1.5853,1.5855,1.5857,0,0,0,0,0,0,1.57,1.5705,1.5741,1.5722,1.5726,1.572,1.5732,1.573,1.5737,1.5734,1.5732,1.5728,1.5733,1.5736,1.5767,1.5792,1.5744,1.5745,1.5851,1.5853,1.5856,1.5897,0,0,0,0,0,0,1.5699,1.5705,1.5721,1.5723,1.5727,1.5769,1.5734,1.5732,1.574,1.5737,1.5741,1.574,1.5732,1.5765,1.5769,1.5794,1.5747,1.5848,1.5852,1.5855,1.5894,1.5901,1.5907,0,0,0,0,0,1.5697,1.5732,1.5722,1.5727,1.5747,1.577,1.5773,1.5762,1.5742,1.5759,1.5757,1.574,1.5788,1.5768,1.5773,1.5799,1.5847,1.5851,1.5855,1.5891,1.59,1.5907,0,0,0,0,0,0,1.5733,1.5732,1.5721,1.5757,1.5764,1.5764,1.5785,1.5771,1.5784,1.578,1.5766,1.5768,1.5802,1.5803,1.5781,1.5842,1.5814,1.582,1.584,1.5848,1.5855,1.5854,1.5749,0,0,0,0,0,1.5745,1.5763,1.5761,1.5794,1.5798,1.5791,1.58,1.5791,1.5798,1.5801,1.5801,1.5809,1.5826,1.5837,1.5852,1.5894,1.5895,1.5914,1.5921,1.5926,1.5931,1.5954,1.5963,1.587,1.5869,1.5869,0,0,1.577,1.5772,1.5784,1.5801,1.5805,1.5825,1.5793,1.5815,1.583,1.5804,1.5834,1.5835,1.5842,1.5879,1.5895,1.5881,1.5957,1.5931,1.5936,1.5937,1.5959,1.5968,1.5976,1.5872,1.5872,1.5871,0,0,1.5826,1.5829,1.5857,1.5862,1.5869,1.5864,1.5871,1.5874,1.5874,1.5903,1.5885,1.5902,1.5931,1.5938,1.5945,1.6005,1.5991,1.6011,1.6046,1.6069,1.6077,1.6083,1.6106,1.6114,1.6015,1.6016,1.6016,0,1.5857,1.5886,1.5873,1.5897,1.5905,1.5883,1.5911,1.5917,1.5929,1.5936,1.592,1.5957,1.596,1.5999,1.6014,1.602,1.6028,1.601,1.6076,1.6083,1.6089,1.611,1.6118,1.6018,1.6018,1.6017,1.6017,0,1.5923,1.5944,1.5965,1.5978,1.5988,1.6014,1.6007,1.6019,1.601,1.6007,1.6039,1.6042,1.6058,1.6067,1.6057,1.6105,1.6096,1.6079,1.605,1.61,1.612,1.6128,1.6022,1.6021,1.602,1.6019,0,0,1.6002,1.6008,1.6016,1.6022,1.6028,1.6044,1.607,1.6085,1.6097,1.6106,1.6128,1.6154,1.6138,1.6146,1.6138,1.6158,1.6207,1.6138,1.6138,1.6152,1.6261,1.6274,1.6284,1.6197,1.6199,1.62,1.626,0,1.6058,1.6102,1.6092,1.6135,1.6154,1.6134,1.6157,1.6164,1.6162,1.6179,1.6177,1.6196,1.6174,1.6179,1.6198,1.6197,1.6229,1.6192,1.6218,1.6219,1.6217,1.6294,1.6308,1.6365,1.6268,1.6269,1.627,0,1.6129,1.6141,1.6187,1.6192,1.6199,1.622,1.6234,1.625,1.6258,1.6256,1.6266,1.6254,1.628,1.6252,1.6288,1.6264,1.6274,1.6275,1.6277,1.628,1.6248,1.6299,1.6383,1.6392,1.6282,1.6281,1.628,0,1.6183,1.6211,1.6242,1.6247,1.6254,1.6269,1.6272,1.6278,1.6289,1.6302,1.6309,1.6325,1.6334,1.6346,1.634,1.6319,1.6378,1.6349,1.6378,1.6378,1.6391,1.6391,1.6478,1.6397,1.6397,1.6396,1.6396,0,1.6247,1.6276,1.6266,1.6286,1.6318,1.6307,1.6339,1.634,1.6346,1.6366,1.6349,1.6368,1.6358,1.6376,1.6371,1.6403,1.6407,1.6406,1.6405,1.6408,1.6408,1.6415,1.6411,1.6399,1.6398,1.6398,1.6397,0,1.6312,1.6307,1.634,1.6343,1.6345,1.6369,1.6372,1.639,1.6388,1.6413,1.6419,1.6415,1.6436,1.6431,1.6453,1.645,1.6491,1.6484,1.6488,1.6487,1.6516,1.6514,1.6612,1.6625,1.6534,1.6535,1.6536,0,1.6353,1.6375,1.6382,1.6394,1.6398,1.6418,1.6429,1.6419,1.6432,1.6443,1.6461,1.648,1.6495,1.653,1.653,1.6548,1.6541,1.6575,1.6544,1.6547,1.6543,1.6542,1.6545,1.6581,1.6582,1.6583,1.6583,0,1.6428,1.6424,1.6441,1.6457,1.6471,1.6483,1.6493,1.6504,1.6496,1.6511,1.6532,1.6544,1.6568,1.6588,1.6604,1.6608,1.6595,1.6593,1.6601,1.6605,1.6607,1.6607,1.6505,1.6591,1.659,1.6589,1.6589,1.6589,1.6483,1.6502,1.651,1.6529,1.6536,1.6547,1.6565,1.6565,1.6583,1.6601,1.6595,1.662,1.6628,1.6649,1.6656,1.6675,1.6663,1.6674,1.6677,1.668,1.6684,1.6603,1.6678,1.6678,1.6678,1.6678,1.6677,0,1.6557,1.6561,1.6579,1.6595,1.661,1.6597,1.6608,1.6622,1.6644,1.6654,1.6669,1.6695,1.6714,1.6716,1.6735,1.6751,1.6745,1.6756,1.6755,1.6757,1.6694,1.6685,1.676,1.676,1.676,1.676,1.676,1.676,1.6597,1.6629,1.6627,1.6663,1.6667,1.6691,1.6699,1.6709,1.6717,1.6746,1.6762,1.6764,1.6771,1.679,1.6808,1.6808,1.6816,1.683,1.6828,1.6769,1.6761,1.6753,1.6745,1.6831,1.6831,1.6889,1.6889,1.689]},{"header":{"parameterUnit":"m.s-1","parameterCategory":1,"la1":30.2991,"la2":30.254,"lo1":-89.0895,"lo2":-89.0444,"dy":0.0017,"dx":0.0017,"nx":28,"ny":28,"refTime":"2024-02-27T03:00:00:Z","depth":0,"parameterNumber":3,"parameterNumberName":"V-component_of_WINDS"},"data":[0,0,0,0,0,0,0,0,0,0,0,0,0,0,0,0,0,0,0,0,0,0,0,0,0,0,0,0,0,0,0,0,0,0,0,0,0,0,0,0,0,0,0,0,0,0,0,0,0,0,0,0,0,0,0,0,0,0,5.1243,5.1243,0,5.1325,5.1326,5.1327,5.1316,5.1315,5.1313,5.1312,5.1395,5.1398,5.1401,0,0,0,0,0,0,0,0,0,0,0,0,0,5.1075,5.1078,5.1242,5.1243,5.1245,5.1325,5.1326,5.1327,5.1316,5.1314,5.1313,5.1311,5.1393,5.1398,5.1402,0,0,0,0,0,0,0,0,0,0,0,0,0,5.1151,5.1079,5.1242,5.1249,5.125,5.1325,5.1326,5.1328,5.1316,5.1314,5.1312,5.131,5.1392,5.1397,5.1402,5.1475,0,0,5.1418,5.142,0,0,0,0,0,0,0,0,5.1147,5.1158,5.1247,5.1248,5.125,5.1308,5.1297,5.1377,5.1317,5.1291,5.1312,5.1309,5.1367,5.1374,5.1394,5.1479,5.1483,5.1419,5.1422,5.1424,5.1426,0,0,0,0,0,0,0,5.1142,5.1154,5.1275,5.1248,5.125,5.1247,5.1256,5.1312,5.134,5.1293,5.1293,5.1303,5.1368,5.1389,5.1396,5.1484,5.1419,5.1423,5.1426,5.1428,5.1636,5.1638,0,0,0,0,0,0,5.1135,5.115,5.1272,5.1278,5.1193,5.1252,5.1262,5.1292,5.1339,5.1344,5.1304,5.1302,5.1382,5.139,5.1399,5.149,5.1424,5.1429,5.1432,5.1634,5.1637,5.1639,0,0,0,0,0,0,5.1131,5.1146,5.1269,5.1214,5.1229,5.1257,5.1291,5.1294,5.1316,5.1347,5.1352,5.1321,5.138,5.1392,5.1457,5.1493,5.1431,5.1436,5.1631,5.1635,5.1638,5.1672,0,0,0,0,0,0,5.1127,5.1145,5.1173,5.1214,5.1232,5.1326,5.1293,5.1297,5.1325,5.1323,5.1365,5.137,5.138,5.145,5.1463,5.1499,5.144,5.1628,5.1633,5.1637,5.1668,5.1676,5.1683,0,0,0,0,0,5.1121,5.1178,5.1174,5.1189,5.1268,5.1328,5.1338,5.1349,5.1328,5.1357,5.1377,5.1368,5.1487,5.1456,5.1471,5.1509,5.1626,5.1631,5.1636,5.1664,5.1674,5.1683,0,0,0,0,0,0,5.1138,5.1183,5.118,5.1252,5.1287,5.1326,5.1362,5.1359,5.14,5.1396,5.1406,5.1416,5.1483,5.1502,5.1468,5.1584,5.1553,5.1562,5.1569,5.158,5.1587,5.1582,5.1444,0,0,0,0,0,5.1151,5.1197,5.1233,5.1293,5.1311,5.1334,5.136,5.1366,5.1402,5.1416,5.1442,5.1476,5.1522,5.1551,5.1594,5.167,5.168,5.1704,5.1711,5.1718,5.1726,5.177,5.1782,5.1657,5.1657,5.1657,0,0,5.1177,5.1207,5.1235,5.1298,5.1325,5.1373,5.1346,5.1397,5.1433,5.1424,5.1488,5.1508,5.1548,5.162,5.1652,5.1638,5.1762,5.1725,5.1729,5.1734,5.1777,5.1789,5.1799,5.166,5.166,5.1659,0,0,5.1249,5.1275,5.133,5.1359,5.1401,5.1417,5.143,5.1471,5.1484,5.1549,5.1544,5.1587,5.1663,5.1693,5.1718,5.1804,5.1799,5.1818,5.1859,5.1903,5.1912,5.1921,5.1955,5.1966,5.1825,5.1825,5.1825,0,5.1276,5.1348,5.1358,5.1411,5.144,5.1435,5.1492,5.1518,5.1572,5.1593,5.1575,5.1674,5.17,5.178,5.1802,5.1821,5.1838,5.1814,5.191,5.1919,5.1928,5.196,5.1972,5.1827,5.1827,5.1827,5.1827,0,5.138,5.143,5.1469,5.1524,5.1557,5.161,5.163,5.1662,5.1665,5.1682,5.175,5.1781,5.1832,5.1851,5.1853,5.1932,5.1923,5.1908,5.1877,5.1942,5.1972,5.1984,5.1831,5.183,5.1829,5.1829,0,0,5.1465,5.1527,5.1541,5.1567,5.1615,5.1654,5.1708,5.1759,5.1788,5.1825,5.1872,5.1939,5.1926,5.1955,5.1961,5.1998,5.2068,5.1979,5.198,5.1997,5.216,5.2173,5.2187,5.2064,5.2066,5.2068,5.2158,0,5.1544,5.1642,5.1654,5.1741,5.1789,5.1786,5.1834,5.1868,5.1886,5.1929,5.1948,5.1997,5.1975,5.1993,5.203,5.2052,5.2102,5.2045,5.2109,5.2112,5.2102,5.2202,5.2216,5.2299,5.217,5.2172,5.2173,0,5.1649,5.1692,5.1784,5.1828,5.1849,5.1892,5.1941,5.1982,5.2022,5.2032,5.2065,5.2067,5.2124,5.2091,5.2171,5.2132,5.2159,5.2174,5.2178,5.2186,5.2148,5.2216,5.2325,5.2339,5.2191,5.219,5.2189,0,5.1706,5.1786,5.1853,5.1875,5.1927,5.1957,5.198,5.2018,5.2049,5.2092,5.2112,5.216,5.2187,5.2225,5.224,5.2214,5.2321,5.2287,5.2332,5.2332,5.2356,5.2355,5.2474,5.237,5.2369,5.2369,5.2369,0,5.1794,5.1851,5.188,5.1921,5.1985,5.1999,5.2062,5.2084,5.2118,5.2164,5.2163,5.2206,5.2222,5.2268,5.228,5.2346,5.2357,5.2369,5.2372,5.237,5.2369,5.239,5.2385,5.2373,5.2372,5.2371,5.2371,0,5.1869,5.189,5.1963,5.2007,5.2019,5.2065,5.2103,5.2143,5.2161,5.2219,5.2233,5.2261,5.2316,5.2334,5.2399,5.2407,5.2485,5.2482,5.2473,5.2474,5.2519,5.2516,5.2657,5.2678,5.2557,5.2558,5.2559,0,5.1925,5.1969,5.2019,5.205,5.2075,5.2125,5.2157,5.2172,5.2206,5.2256,5.2291,5.2345,5.2389,5.2476,5.2502,5.2553,5.2552,5.2598,5.256,5.2558,5.2556,5.2555,5.2561,5.2606,5.2608,5.2609,5.2609,0,5.2023,5.2032,5.2079,5.2131,5.217,5.2211,5.225,5.2276,5.2297,5.2335,5.2392,5.2426,5.2494,5.2549,5.2601,5.2624,5.2622,5.2621,5.2635,5.2635,5.2629,5.2636,5.2495,5.2618,5.2617,5.2617,5.2616,5.2616,5.2092,5.2133,5.2175,5.2229,5.226,5.2298,5.2339,5.2363,5.2411,5.2468,5.2474,5.2535,5.2576,5.2646,5.2672,5.2721,5.2708,5.2727,5.2732,5.2737,5.2742,5.262,5.273,5.2729,5.2729,5.2729,5.2729,0,5.2193,5.2221,5.227,5.2327,5.2369,5.2363,5.2407,5.2443,5.2498,5.2536,5.2581,5.2647,5.27,5.2731,5.2785,5.2818,5.2818,5.2832,5.2831,5.2837,5.2749,5.2733,5.2831,5.2831,5.2831,5.2831,5.2831,5.2831,5.2251,5.232,5.2335,5.2421,5.2447,5.2509,5.2535,5.257,5.2602,5.2676,5.2721,5.2741,5.2778,5.2834,5.2884,5.2892,5.2913,5.2928,5.2935,5.2853,5.2842,5.2833,5.2818,5.2932,5.2932,5.3019,5.302,5.302]}]]